Retour au catalogue

STARLINK-31255

ActifCommunicationsVLEO
NORAD 58893·PAYLOAD·🇺🇸 United States

Lancé Jan 29, 2024 depuis Vandenberg Space Force Base

Loading…

Prochains Passages (prochaines 24 heures)

TLE

FraisSource: CelesTrak SupGP

Époque: Sep 15, 2026, 03:26 UTC

1 58893C 24020T   26258.14354167  .00012450  00000+0  36788-3 0  2589
2 58893  53.1562 158.5102 0001331  83.0602 240.2990 15.34380416    18

Suivez STARLINK-31255 en temps réel avec AllMySat

Download on the App Store